sat.trackr.live / text

‹ back to catalog

STARLINK-6081

NORAD 56108 · 2023-046R

PAYLOAD ACTIVE UNKNOWN

§ Identity

Operator
Country
US
Launch date
2023-03-29
Launch site
AFETR
Launch vehicle
Mass (kg)
RCS (m²)

Purposes: comms

External: N2YO · Heavens-Above · Gunter

§ Orbital elements

Epoch: 2026-05-25T04:48:47.278944Z

Period
94.27 min
Inclination
43.0006°
Eccentricity
0.0000923
Mean motion
15.27584410 rev/d
Perigee alt
482.4 km
Apogee alt
483.7 km
Semi-major
6,861.2 km
B*
1.0508e-4
RAAN
89.3879°
Arg perigee
249.3137°
Mean anomaly
110.7616°
Rev number
17,373

§ Raw data

STARLINK-60811 56108U 23046R   26145.20054721  .00002631  00000+0  10508-3 0  99922 56108  43.0006  89.3879 0000923 249.3137 110.7616 15.27584410173732

JSON: /api/v1/satellites/56108 · /tle

For live sub-satellite position, see the globe view (requires WebGL).

§ Visibility from observer

Set your observer location to see the next 7 days of passes ≥ 10°. The values pass through the URL so the page stays shareable.

No JS? Fill the form by hand. The geolocation button needs JavaScript.